DW7061 Weather Reports


Display with metric or nautical units.
time (UTC)temp
F
wind
direction
speed
MPH
gust
MPH
rain 1hr
in
rain 24hr
in
rain mn
in
humidity
%
barometer
mb
20260901222517 60 0.0 0.0 0.00 0.00 0.00 97 1017.5
20260901221517 60 0.0 0.0 0.00 0.00 0.00 97 1017.7
20260901220517 60 0.0 1.0 0.00 0.00 0.00 97 1017.6
20260901215518 60 0.0 1.0 0.00 0.00 0.00 96 1017.5
20260901214538 60 0.0 1.0 0.00 0.00 0.00 96 1017.4
20260901213518 60 0.0 1.0 0.00 0.00 0.00 96 1017.3
20260901212537 60 0.0 1.0 0.00 0.00 0.00 96 1017.2
20260901211517 60 0.0 1.0 0.00 0.00 0.00 96 1017.2
20260901210518 61 0.0 1.0 0.00 0.00 0.00 96 1017.2
20260901205517 61 0.0 1.0 0.00 0.00 0.00 96 1017.2
20260901204518 61 0.0 3.0 0.00 0.00 0.00 96 1016.9
20260901203517 61 0.0 1.0 0.00 0.00 0.00 96 1016.7
20260901202518 61 0.0 2.0 0.00 0.00 0.00 97 1016.7
20260901201537 61 0.0 1.0 0.00 0.00 0.00 96 1016.5
20260901200518 62 0.0 2.0 0.00 0.00 0.00 96 1016.5
20260901195517 62 0.0 3.0 0.00 0.00 0.00 96 1016.4
20260901194517 62 0.0 4.0 0.00 0.00 0.00 96 1016.3
20260901193517 63 0.0 3.0 0.00 0.00 0.00 97 1016.4
20260901192517 63 0.0 4.0 0.00 0.00 0.00 97 1016.3
20260901191517 64 0.0 2.0 0.00 0.00 0.00 97 1016.4
20260901190517 64 0.0 4.0 0.00 0.00 0.00 97 1016.5
20260901185538 64 0.0 6.0 0.00 0.00 0.00 97 1016.5
20260901184518 64 0.0 1.0 0.00 0.00 0.00 97 1016.6
20260901183517 64 0.0 1.0 0.00 0.00 0.00 97 1016.6
20260901182517 64 0.0 3.0 0.00 0.00 0.00 97 1016.5
20260901181517 64 0.0 0.0 0.00 0.00 0.00 97 1016.4
20260901180517 63 0.0 0.0 0.00 0.00 0.00 97 1016.3
20260901175517 63 0.0 1.0 0.00 0.00 0.00 97 1016.3
20260901174518 63 0.0 0.0 0.00 0.00 0.00 97 1016.3
20260901173517 63 0.0 1.0 0.00 0.00 0.00 97 1016.3
20260901172519 63 0.0 0.0 0.00 0.00 0.00 97 1016.2
20260901171519 63 0.0 0.0 0.00 0.00 0.00 97 1016.1
20260901170517 63 0.0 1.0 0.00 0.00 0.00 97 1016.1
20260901165517 63 0.0 4.0 0.00 0.00 0.00 97 1016.0
20260901164517 63 0.0 2.0 0.00 0.00 0.00 97 1015.9
20260901163517 64 0.0 3.0 0.00 0.00 0.00 97 1015.7
20260901162517 64 0.0 1.0 0.00 0.00 0.00 97 1015.6
20260901161537 64 0.0 0.0 0.00 0.00 0.00 97 1016.3
20260901160517 64 0.0 0.0 0.00 0.00 0.00 97 1016.3
20260901155518 64 0.0 1.0 0.00 0.00 0.00 97 1016.0
20260901154517 64 0.0 2.0 0.00 0.00 0.00 97 1016.0
20260901153517 64 0.0 2.0 0.00 0.00 0.00 97 1016.2
20260901152517 64 0.0 1.0 0.00 0.00 0.00 97 1016.2
20260901151518 64 0.0 1.0 0.00 0.00 0.00 97 1016.1
20260901150537 64 0.0 6.0 0.00 0.00 0.00 97 1016.3
20260901145539 64 0.0 2.0 0.00 0.00 0.00 97 1016.2
20260901144517 64 0.0 1.0 0.00 0.00 0.00 97 1016.6
20260901143538 64 0.0 0.0 0.00 0.00 0.00 97 1016.8
20260901142518 64 0.0 0.0 0.00 0.00 0.00 97 1016.7
20260901141517 64 0.0 1.0 0.00 0.00 0.00 97 1016.7
20260901140517 64 0.0 1.0 0.00 0.00 0.00 97 1016.7
20260901135518 64 0.0 1.0 0.00 0.00 0.00 97 1016.7
20260901134518 64 0.0 2.0 0.00 0.00 0.00 97 1016.5
20260901133538 64 0.0 1.0 0.00 0.00 0.00 97 1016.8
20260901132517 64 0.0 0.0 0.00 0.00 0.00 97 1016.8
20260901131537 64 0.0 0.0 0.00 0.00 0.00 97 1016.9
20260901130518 64 0.0 0.0 0.00 0.00 0.00 97 1016.8
20260901125518 64 0.0 0.0 0.00 0.00 0.00 97 1017.1
20260901124518 63 0.0 0.0 0.00 0.00 0.00 97 1016.7
20260901123517 63 0.0 0.0 0.00 0.00 0.00 97 1016.9
20260901122657 63 0.0 0.0 0.00 0.00 0.00 97 1017.1
20260901121518 63 0.0 0.0 0.00 0.00 0.00 97 1017.3
20260901120517 63 0.0 0.0 0.00 0.00 0.00 97 1017.2
20260901115517 63 0.0 0.0 0.00 0.00 0.00 96 1016.9
20260901114517 63 0.0 0.0 0.00 0.00 0.00 96 1016.7
20260901113517 63 0.0 1.0 0.00 0.00 0.00 96 1016.7
20260901112517 63 0.0 0.0 0.00 0.00 0.00 96 1016.9
20260901111557 63 0.0 0.0 0.00 0.00 0.00 96 1016.8
20260901110517 63 0.0 0.0 0.00 0.00 0.00 96 1017.0
20260901105518 63 0.0 0.0 0.00 0.00 0.00 96 1017.0
20260901104517 63 0.0 0.0 0.00 0.00 0.00 96 1017.1
20260901103517 63 0.0 0.0 0.00 0.00 0.00 96 1016.9
20260901102517 63 0.0 0.0 0.00 0.00 0.00 96 1016.7
20260901101517 63 0.0 0.0 0.00 0.00 0.00 96 1016.6
20260901100517 63 0.0 0.0 0.00 0.00 0.00 96 1016.5
20260901095517 63 0.0 0.0 0.00 0.00 0.00 96 1016.6
20260901094518 63 0.0 0.0 0.00 0.00 0.00 96 1016.8
20260901093517 63 0.0 0.0 0.00 0.00 0.00 96 1016.9
20260901092517 63 0.0 0.0 0.00 0.00 0.00 96 1016.8
20260901091517 63 0.0 0.0 0.00 0.00 0.00 96 1016.8
20260901090518 63 0.0 0.0 0.00 0.00 0.00 96 1017.0
20260901085517 63 0.0 0.0 0.00 0.00 0.00 96 1017.0
20260901084517 63 0.0 0.0 0.00 0.00 0.00 96 1017.1
20260901083518 63 0.0 0.0 0.00 0.00 0.00 96 1017.1
20260901082517 63 0.0 0.0 0.00 0.00 0.00 96 1017.2
20260901081517 63 0.0 0.0 0.00 0.00 0.00 96 1017.1
20260901080518 63 0.0 0.0 0.00 0.00 0.00 96 1017.1
20260901075537 63 0.0 0.0 0.00 0.00 0.00 95 1017.1
20260901074517 63 0.0 0.0 0.00 0.00 0.00 95 1017.3
20260901073518 63 0.0 0.0 0.00 0.00 0.00 95 1017.4
20260901072517 63 0.0 0.0 0.00 0.00 0.00 95 1017.6
20260901071517 63 0.0 0.0 0.00 0.00 0.00 95 1017.7
20260901070517 63 0.0 0.0 0.00 0.00 0.00 95 1017.8
20260901065517 63 0.0 0.0 0.00 0.00 0.00 95 1018.0
20260901064517 63 0.0 0.0 0.00 0.00 0.00 95 1018.1
20260901063518 63 0.0 0.0 0.00 0.00 0.00 95 1018.0
20260901062517 63 0.0 0.0 0.00 0.00 0.00 94 1017.9
20260901061517 63 0.0 0.0 0.00 0.00 0.00 94 1018.1
20260901060517 63 0.0 0.0 0.00 0.00 0.00 94 1017.9
20260901055517 64 0.0 0.0 0.00 0.00 0.00 93 1018.1
20260901054517 64 0.0 0.0 0.00 0.00 0.00 93 1018.2
20260901053518 64 0.0 0.0 0.00 0.00 0.00 92 1018.3
20260901052537 64 0.0 0.0 0.00 0.00 0.00 91 1018.3
20260901051517 65 0.0 0.0 0.00 0.00 0.00 90 1018.3
20260901050518 65 0.0 0.0 0.00 0.00 0.00 90 1018.2
20260901045517 65 0.0 0.0 0.00 0.00 0.00 90 1018.5
20260901044517 65 0.0 0.0 0.00 0.00 0.00 90 1018.5
20260901043538 65 0.0 0.0 0.00 0.00 0.00 90 1018.3
20260901042517 65 0.0 0.0 0.00 0.00 0.00 90 1018.1
20260901041517 65 0.0 0.0 0.00 0.00 0.00 90 1018.2
20260901040518 65 0.0 0.0 0.00 0.00 0.00 90 1018.2
20260901035516 65 0.0 0.0 0.00 0.00 0.00 90 1018.2
20260901034516 65 0.0 0.0 0.00 0.00 0.00 90 1018.2
20260901033537 65 0.0 0.0 0.00 0.00 0.00 89 1018.1
20260901032516 65 0.0 1.0 0.00 0.00 0.00 89 1018.3
20260901031516 65 0.0 0.0 0.00 0.00 0.00 88 1018.3
20260901030515 65 0.0 1.0 0.00 0.00 0.00 88 1018.6
20260901025517 66 0.0 1.0 0.00 0.00 0.00 87 1018.6
20260901024517 66 0.0 1.0 0.00 0.00 0.00 86 1018.6
20260901023516 66 0.0 0.0 0.00 0.00 0.00 86 1018.5
20260901022516 66 0.0 0.0 0.00 0.00 0.00 86 1018.4
20260901021517 66 0.0 0.0 0.00 0.00 0.00 86 1018.3
20260901020515 66 0.0 0.0 0.00 0.00 0.00 87 1018.3
20260901015516 66 0.0 0.0 0.00 0.00 0.00 86 1018.2
20260901014516 66 0.0 0.0 0.00 0.00 0.00 87 1018.2
20260901013516 67 0.0 0.0 0.00 0.00 0.00 87 1018.3
20260901012518 67 0.0 0.0 0.00 0.00 0.00 87 1018.3
20260901011518 67 0.0 0.0 0.00 0.00 0.00 87 1018.3
20260901010518 67 0.0 0.0 0.00 0.00 0.00 87 1018.2
20260901005517 67 0.0 0.0 0.00 0.00 0.00 86 1018.3
20260901004518 67 0.0 1.0 0.00 0.00 0.00 86 1018.2
20260901003518 67 0.0 1.0 0.00 0.00 0.00 86 1018.2
20260901002518 66 0.0 0.0 0.00 0.00 0.00 86 1018.2
20260901001518 66 0.0 0.0 0.00 0.00 0.00 87 1018.1
20260901000518 66 0.0 0.0 0.00 0.00 0.00 87 1018.1
20260831235518 66 0.0 0.0 0.00 0.00 0.00 88 1018.2
20260831234518 67 0.0 0.0 0.00 0.00 0.00 87 1018.1
20260831233538 67 0.0 0.0 0.00 0.00 0.00 87 1018.1
20260831232518 68 0.0 0.0 0.00 0.00 0.00 85 1018.3
20260831231518 68 0.0 0.0 0.00 0.00 0.00 85 1018.4
20260831230518 68 0.0 2.0 0.00 0.00 0.00 85 1018.5
20260831225517 68 0.0 0.0 0.00 0.00 0.00 85 1018.5
20260831224538 69 0.0 0.0 0.00 0.00 0.00 85 1018.7
20260831223518 69 0.0 0.0 0.00 0.00 0.00 84 1018.6